Погода в Севастополе

Казахстан     53°08′09″N   65°47′35″E
темп.,
°C
ветер,
м/с
пор.,
м/с
влажн.,
%
обл.,
%
осадки,
мм/ч
давл.,
гПа
погр.,
м
2 марта, вт
вт200:00−18зсз229638 0.0 101927
03:00−18юз129690 0.1 101820
06:00−19зюз239885 0.2 101825
09:00−17ююз2397100 0.3 101765
12:00−15ююз359482 0.3 1016230
15:00−13ююз469487 0.0 1015300
18:00−12ююз499494 0.1 1014367
21:00−15ююз61294100 0.0 1014321
3 марта, ср
ср300:00−17ююз7139498 0.1 1014319
03:00−18ююз7149496 0.0 1013296
06:00−16юз8159398 0.1 1012371
09:00−15ююз81592100 0.1 1011433
12:00−11ююз91691100 0.1 1010542
15:00−6юз101691100 0.1 1009811
18:00−4ююз91593100 0.4 1008882
21:00−3юз91693100 0.6 1007796
4 марта, чт
чт400:00−3юз91694100 1.1 1007743
03:00−2ююз81595100 0.9 1004771
06:00−1ююз91596100 1.9 1003795
09:00−1юз81396100 1.1 1002784
12:00−1юз81295100 1.8 1002797
15:00−1юз81296100 0.9 1002847
18:00−2з71186100 1.8 1003675
21:00−8зюз5129478 0.0 1006288
5 марта, пт
пт500:00−11зюз5109062 0.0 1010195
03:00−12юз612910 0.0 1011219
06:00−13юз814920 0.0 1012345
09:00−11юз9179398 0.3 1011597
12:00−6юз12199399 1.1 1011886
15:00−3юз132089100 0.4 10101080
18:00−2юз132190100 0.6 10101189
21:00−2юз121993100 0.7 10101092
6 марта, сб
сб600:00−2юз111794100 1.6 1011968
03:00−2юз101695100 1.7 1011877
06:00−2зюз91596100 3.7 1012832
09:00−3сз5896100 1.3 1014428
12:00−5зсз359287 1.4 1016219
15:00−4зюз2387100 0.0 1016332
18:00−5ююз339393 0.0 101645
21:00−3ююз51195100 0.1 1014444